Temperature
20 20 19 20 24 27 27 28 28 28 28 27 26 26 27 26 26 24 21 20 20 19 19 19 19 19 19 19 19 19 19 19 19 19 19 19 18 19 18 18 18 18 18 18 18 18 18 18 18
20 20 20 23 27 28 28 28 28 28 27 26 26 26 26 25 24 22 21 20 20 19 19 19 19 19 19 19 19 19 19 19 19 19 18 18 18 19 18 18 18 18 18 18 18 18 18 18 18
20 20 22 26 28 28 28 28 28 28 27 27 26 26 26 24 23 22 20 20 20 19 19 18 19 19 19 19 19 19 19 19 19 19 18 18 18 19 19 19 18 18 18 18 18 18 18 18 18
20 21 24 27 28 28 28 29 28 28 27 26 27 26 24 22 22 21 20 20 20 19 19 18 19 19 19 19 19 19 19 19 19 19 19 18 18 18 18 18 19 18 18 18 18 18 18 18 18
21 25 28 28 29 29 29 29 28 29 28 27 27 26 24 22 21 21 20 20 20 20 19 19 19 19 19 19 19 19 19 19 18 18 18 18 18 18 18 18 19 18 18 18 18 18 18 18 18
25 28 29 29 29 29 29 28 28 29 28 27 26 26 24 21 21 21 20 20 20 20 19 19 19 19 19 19 19 19 19 18 18 18 18 18 18 18 18 18 18 18 18 18 18 18 18 18 18
26 28 29 30 29 29 29 29 29 29 28 27 26 27 24 22 21 20 20 20 20 19 19 19 19 19 19 19 19 19 19 18 18 18 18 18 18 18 18 18 18 18 18 18 18 18 18 18 18
26 29 30 30 30 30 29 29 28 28 28 26 26 27 25 22 21 21 20 20 20 19 19 19 19 19 19 18 19 19 19 19 18 18 19 19 18 18 18 18 19 19 19 18 18 18 18 18 18
26 29 30 30 30 30 30 29 28 27 27 26 26 26 24 22 21 21 21 20 19 19 19 19 19 19 19 19 18 18 19 19 18 18 19 18 18 18 18 18 19 19 19 19 18 19 19 18 18
28 30 30 31 31 31 30 30 29 28 28 27 26 24 23 22 22 22 21 21 20 19 19 19 19 19 19 19 18 18 18 18 18 18 18 18 18 18 18 18 19 19 19 19 18 19 18 18 18
29 30 30 30 30 30 30 30 29 29 29 28 26 24 23 22 22 22 22 21 20 20 19 19 19 19 19 19 19 18 18 18 18 18 18 18 18 18 18 18 18 18 18 18 18 18 18 18 18
30 30 30 30 29 30 30 30 29 29 28 27 26 25 23 23 23 22 22 21 20 20 19 19 19 19 19 19 19 19 18 18 18 18 18 18 18 18 18 18 18 18 18 18 18 18 18 18 18
30 30 29 29 29 30 29 29 29 28 27 26 25 24 24 24 23 22 22 21 20 20 20 19 19 19 19 19 19 19 18 18 18 18 18 18 18 18 18 18 18 18 18 18 18 18 18 18 18
30 30 30 30 30 30 30 30 29 28 27 26 25 25 24 24 23 22 22 21 21 20 20 19 19 19 19 19 19 18 18 18 18 18 18 18 18 18 18 18 18 18 18 18 18 18 18 18 18
29 30 31 31 31 30 30 30 30 28 27 26 26 25 24 24 23 22 22 21 21 20 20 19 19 19 19 19 19 19 18 18 18 18 18 18 18 18 18 18 18 18 18 18 18 18 18 18 18
31 31 31 31 31 30 31 30 30 28 28 27 26 25 24 24 23 22 22 21 21 21 20 20 20 19 19 19 19 19 19 18 18 18 18 18 18 18 18 18 18 18 18 18 18 18 18 18 18
31 31 31 31 31 31 31 31 30 28 28 28 26 25 24 24 23 22 22 21 21 21 20 20 20 19 19 19 19 18 18 18 18 18 18 18 18 18 18 18 18 18 18 18 18 18 18 18 18
31 31 31 31 32 31 31 31 30 29 28 28 27 26 25 24 23 23 22 21 21 20 20 20 20 20 19 19 19 19 18 18 18 18 18 18 18 18 18 18 18 18 18 18 18 18 18 18 18
31 31 31 31 32 31 31 31 31 29 28 28 27 26 25 24 24 23 22 21 21 20 20 20 20 20 19 19 19 19 18 18 18 18 18 18 18 18 18 18 18 18 18 18 18 18 18 18 18
30 30 31 31 31 31 31 30 31 30 29 28 27 26 26 25 24 23 22 21 21 20 20 20 20 20 20 19 19 19 18 18 18 18 18 18 18 18 18 18 18 18 18 18 17 17 17 18 18
30 30 31 31 31 31 30 30 30 30 29 28 27 26 26 25 24 23 22 21 21 20 20 20 20 20 20 19 19 19 19 19 18 18 18 18 18 18 18 18 18 18 18 18 18 17 17 17 18
30 31 31 30 30 31 31 30 31 30 29 29 28 27 26 25 24 23 23 22 21 21 20 20 20 20 20 19 19 19 19 19 19 18 18 18 18 18 18 18 18 18 18 18 17 17 17 17 18
31 31 30 30 30 31 31 30 31 30 30 29 28 27 26 25 24 24 23 22 21 21 20 20 20 20 20 19 19 19 18 18 18 18 18 18 18 18 18 18 18 18 18 17 17 17 17 17 17
31 30 30 30 31 30 31 30 31 31 30 30 29 27 26 25 24 23 23 22 21 21 20 20 20 20 20 19 19 19 19 18 18 18 18 18 18 18 18 18 18 18 17 17 17 17 17 17 17
30 30 29 29 29 30 31 30 30 31 31 30 29 28 27 25 24 23 22 22 21 21 20 20 20 20 19 19 19 19 19 19 18 18 18 18 18 18 18 18 18 17 17 17 17 17 17 17 17
30 30 29 29 29 31 30 30 31 30 29 29 28 28 26 25 24 23 23 22 21 21 20 20 20 20 19 19 19 19 19 19 18 18 18 18 18 18 18 18 17 17 17 17 17 17 17 17 17
30 31 31 30 30 30 30 30 30 30 29 29 28 27 26 25 24 23 22 22 21 21 20 20 20 20 19 19 19 19 19 19 18 18 18 18 18 18 17 17 17 17 17 17 17 17 17 16 16
31 31 31 30 28 28 30 30 30 29 29 29 28 27 26 25 24 23 22 22 21 21 20 20 19 19 19 19 19 19 19 19 18 18 18 18 18 18 17 17 17 17 17 17 17 16 16 16 16
30 30 30 30 29 29 29 30 31 30 29 29 28 27 26 25 24 23 22 22 21 20 20 20 19 19 19 19 19 19 18 18 18 18 17 17 17 17 17 17 17 16 16 16 16 16 16 15 15
30 30 29 29 28 29 29 29 30 29 29 28 28 26 25 24 24 23 22 21 21 20 20 19 19 19 19 19 19 19 18 18 18 17 17 17 17 17 17 16 16 16 16 16 15 15 15 15 15
Wind_Speed
10 8 4 3 3 1 7 5 4 4 4 5 4 3 4 6 5 4 5 6 6 7 9 10 8 9 11 11 10 10 10 10 10 10 11 10 9 9 9 9 9 8 8 8 8 8 9 9 8
7 5 4 4 1 5 7 6 6 6 5 4 4 3 4 6 6 6 6 6 6 8 8 9 10 11 12 11 10 10 10 10 10 10 10 10 9 9 9 9 9 8 8 7 7 7 7 7 7
6 5 4 1 4 7 7 7 6 6 4 3 3 4 4 5 5 4 6 7 7 8 9 11 10 10 10 10 9 9 9 9 10 10 10 9 9 8 8 8 8 7 7 7 6 6 6 7 6
4 4 3 1 7 7 5 5 4 3 4 3 3 5 5 5 4 6 8 7 8 9 9 12 9 9 9 10 9 9 8 9 9 9 9 8 8 7 7 7 7 6 6 6 6 6 5 6 6
4 3 0 4 7 6 5 4 3 3 4 4 3 5 6 5 7 8 8 8 8 8 9 11 10 10 9 9 8 8 8 8 8 8 8 7 7 6 6 6 6 5 5 5 5 5 5 5 5
3 2 2 6 7 6 4 3 2 4 4 4 4 5 5 5 7 7 8 7 7 8 8 11 11 9 9 8 8 8 8 8 8 7 6 6 6 5 5 5 4 4 4 4 4 4 4 4 4
3 2 4 6 6 6 5 4 3 3 4 3 2 4 6 6 6 7 8 7 7 8 7 8 10 10 9 8 7 8 7 7 7 7 6 5 5 4 4 3 3 3 3 3 3 4 5 5 5
4 2 3 5 6 6 5 3 3 3 3 3 1 2 6 8 8 8 8 8 7 7 7 7 7 7 7 9 8 7 7 6 6 6 5 5 5 5 5 5 4 2 2 2 2 3 3 4 5
4 1 5 7 6 5 3 2 3 2 4 3 2 3 7 12 11 10 9 8 7 6 6 6 6 6 5 6 8 8 8 7 6 6 6 5 4 4 5 4 3 3 3 3 3 3 4 5 6
2 3 6 6 5 4 3 2 2 2 3 3 5 6 10 12 11 9 9 8 8 7 6 5 5 5 5 4 6 5 6 6 4 4 4 4 3 2 2 5 4 3 3 4 5 5 7 8 5
1 3 5 4 4 4 3 2 0 1 1 2 5 9 11 11 10 8 8 7 8 7 6 6 5 4 4 4 4 3 3 4 4 4 3 2 2 3 2 2 4 4 5 4 4 5 4 4 3
2 3 4 4 4 4 2 1 1 0 2 3 5 10 11 11 10 8 8 7 7 7 6 6 6 5 4 3 3 3 3 3 3 4 3 2 1 1 1 1 1 2 2 2 2 2 2 3 3
4 3 4 4 4 2 1 0 0 1 2 5 8 10 11 10 9 8 8 7 7 7 6 6 5 5 4 4 2 3 3 3 3 2 3 2 1 1 1 1 1 2 2 2 2 1 1 2 3
3 5 5 4 1 1 1 1 2 3 5 7 8 9 10 9 9 9 8 7 7 7 7 6 6 5 4 4 3 3 3 3 2 2 2 2 2 1 1 2 1 1 2 1 2 2 2 2 2
5 6 4 2 2 2 2 3 2 4 6 8 8 8 9 9 9 9 8 8 7 7 7 7 6 6 5 4 4 3 2 3 2 2 2 2 2 1 2 1 1 1 1 2 2 2 2 3 2
6 6 3 2 2 2 5 0 4 6 7 7 8 8 8 8 8 8 8 8 7 7 7 7 6 6 6 4 3 2 2 2 2 2 2 2 2 1 2 1 1 1 1 2 2 2 2 2 2
6 4 3 1 3 2 5 2 3 5 7 7 8 8 8 8 8 8 9 8 8 7 7 7 6 6 6 5 4 3 2 1 1 1 1 2 2 2 2 1 1 1 1 1 2 1 2 2 3
5 5 5 3 2 4 6 3 2 5 6 7 8 8 8 8 8 8 8 8 7 7 7 7 6 6 5 4 4 3 2 2 2 2 1 2 2 2 2 1 1 2 1 1 1 2 2 3 3
8 8 8 5 2 5 6 5 3 4 6 6 7 8 9 8 9 9 8 8 8 7 7 7 7 6 5 4 4 3 3 2 2 2 2 2 2 2 2 2 1 2 1 1 2 2 2 3 2
9 10 8 5 3 5 6 7 4 4 6 6 7 8 9 9 9 9 9 9 8 8 8 8 7 7 6 5 4 3 2 2 2 2 1 2 2 2 2 2 2 1 1 1 2 2 3 2 2
10 10 9 7 4 7 7 7 6 5 5 6 6 7 8 9 10 10 10 9 9 9 9 8 8 8 7 6 4 3 3 2 2 2 2 2 2 2 2 2 2 2 2 2 2 2 3 3 3
10 7 8 8 8 6 6 7 5 5 6 6 6 7 8 8 9 10 10 9 9 9 9 8 7 7 7 7 6 6 4 3 2 2 2 2 2 2 2 2 2 2 2 2 3 2 3 4 3
8 5 7 9 10 10 8 8 4 5 6 6 6 7 8 8 9 10 10 9 8 8 8 7 7 6 6 6 6 5 4 3 2 2 2 2 2 2 2 2 2 3 3 2 3 2 3 3 4
7 7 8 9 10 11 8 9 6 4 4 4 6 6 7 8 9 9 8 8 8 8 8 8 8 7 6 6 6 5 4 3 2 2 2 3 2 2 2 2 3 3 2 3 3 3 4 4 4
10 9 7 8 8 9 6 8 5 2 2 3 5 6 7 8 8 9 9 9 8 8 8 8 8 8 7 7 6 6 6 5 4 3 3 3 2 2 2 2 3 3 3 3 3 3 4 4 3
11 11 9 9 9 7 6 7 3 1 1 2 4 5 6 7 8 8 9 9 8 8 8 8 8 7 7 7 6 6 6 5 4 4 3 3 3 2 2 2 2 3 3 3 3 3 3 2 3
10 11 10 11 12 11 7 6 5 4 4 4 5 5 6 7 8 8 8 8 8 8 8 8 8 7 7 6 6 5 5 4 4 3 4 3 3 2 2 2 3 2 2 3 3 2 2 2 3
11 9 8 9 10 11 10 9 6 5 5 5 5 5 6 7 7 8 8 8 8 8 8 8 8 7 6 5 5 4 4 4 4 3 3 3 4 3 3 3 3 3 3 3 3 2 1 2 2
9 10 8 8 9 12 11 6 1 2 3 4 4 5 6 6 7 6 7 7 7 8 8 8 8 7 6 6 5 4 4 3 3 3 4 4 3 3 3 3 3 3 3 3 2 3 2 3 3
9 10 10 10 9 11 11 6 2 2 2 3 3 4 5 5 6 6 6 6 7 7 6 6 6 6 5 5 5 4 3 3 3 3 3 3 3 3 3 3 3 3 2 2 3 3 3 3 3
Wind_Direction
186 186 203 232 236 115 58 48 44 52 53 54 50 43 39 32 22 62 87 103 106 117 121 129 121 128 137 135 133 134 135 133 132 133 137 140 142 142 143 144 146 147 148 152 155 155 153 154 154
173 177 220 242 320 62 61 52 50 49 68 86 79 69 66 63 57 90 110 112 119 119 122 116 116 123 131 133 133 132 133 132 131 133 136 140 140 139 141 145 148 148 149 153 159 163 158 157 160
175 212 258 280 41 45 49 49 57 67 76 63 72 61 52 63 80 92 105 127 124 117 118 113 120 125 130 130 129 129 131 131 131 133 133 137 139 140 144 146 147 149 152 157 161 162 163 167 172
199 225 236 42 58 49 39 38 51 74 73 66 88 87 80 63 80 99 120 131 127 123 122 118 126 126 127 128 129 133 137 134 132 131 131 133 136 140 146 145 147 151 158 165 168 168 168 176 183
234 254 168 76 60 53 45 44 35 54 63 79 92 96 93 83 93 113 128 133 128 125 122 123 127 128 129 129 133 134 136 133 129 128 130 131 133 135 140 143 148 156 162 165 169 172 183 186 188
242 254 38 57 60 57 57 56 54 55 77 92 109 110 97 110 115 123 128 128 125 126 124 123 132 132 134 132 131 131 130 132 131 131 134 131 127 131 134 140 149 157 165 174 182 188 193 189 194
291 352 37 47 56 59 55 47 35 52 74 83 101 109 118 129 125 129 129 128 122 126 128 132 140 145 149 142 135 132 132 133 136 136 142 143 143 143 139 152 158 160 173 178 187 198 206 207 210
290 304 42 46 44 54 58 51 33 30 72 94 123 108 129 141 141 138 132 125 124 128 134 137 135 141 151 148 144 141 138 135 141 147 151 166 177 171 169 178 159 167 185 198 188 194 209 215 221
266 315 36 32 29 45 50 42 51 70 111 115 96 69 112 135 146 144 138 134 133 133 136 140 140 146 150 144 142 153 152 154 165 163 165 191 189 175 176 136 145 182 197 197 194 204 213 221 217
271 6 29 17 12 17 12 6 56 132 128 132 125 114 129 143 152 152 149 147 145 147 148 145 143 149 149 147 147 159 156 153 166 154 172 180 174 190 190 148 176 195 203 204 203 212 217 229 221
296 347 0 359 1 353 349 3 9 198 108 116 145 145 150 156 160 161 156 150 145 152 152 150 147 151 154 149 145 144 153 158 166 162 179 181 197 185 188 185 183 198 209 218 199 221 227 231 237
282 317 321 329 332 320 332 358 56 271 44 79 134 150 158 165 169 169 162 158 152 157 157 154 152 153 157 152 147 158 160 165 166 160 195 188 195 217 171 232 250 232 220 234 248 234 240 253 254
265 303 317 310 301 306 293 267 276 106 103 116 136 152 164 168 169 167 163 162 159 164 164 159 160 157 160 157 176 162 166 169 164 176 187 217 213 227 225 249 267 271 261 234 253 256 243 258 254
311 300 293 280 246 179 211 186 164 124 136 139 149 159 166 169 171 168 169 172 173 174 170 167 170 165 171 175 179 179 179 175 188 188 185 214 227 235 238 233 250 260 264 274 263 243 246 256 262
277 275 263 216 210 189 241 179 143 142 155 156 160 163 167 171 176 178 177 181 181 179 173 176 177 176 183 189 194 187 185 175 183 181 181 213 222 212 240 243 239 269 277 256 249 250 245 245 246
248 254 250 163 207 217 256 302 124 157 171 170 169 168 174 177 181 182 181 184 184 183 178 184 186 179 183 184 197 197 194 182 194 184 179 194 229 232 250 254 262 272 253 248 243 247 250 253 258
234 267 290 200 198 245 254 295 125 167 183 179 177 177 181 180 185 185 186 187 184 182 180 181 185 183 182 178 182 195 192 206 217 204 204 198 218 223 243 264 306 265 262 273 270 253 270 255 257
292 292 290 284 218 253 259 274 175 175 194 188 182 182 187 188 189 186 185 183 179 178 178 176 180 181 179 177 179 191 195 205 208 211 207 233 229 223 247 234 243 270 277 279 294 289 271 268 264
293 290 290 292 281 263 262 269 246 188 199 198 191 189 191 194 186 183 182 181 179 180 181 179 181 176 180 185 196 194 202 212 207 214 206 221 238 220 230 260 218 258 257 272 274 275 263 263 267
265 274 278 273 257 266 268 268 247 202 205 206 199 197 196 194 187 185 184 184 185 185 183 182 184 181 189 191 196 198 212 218 206 227 199 231 231 232 212 234 248 243 247 247 265 269 281 281 271
258 266 276 280 264 247 261 251 221 203 200 202 205 203 200 195 189 188 189 190 189 188 188 188 186 184 193 190 187 186 194 214 204 210 211 223 220 217 242 236 257 256 252 247 254 260 264 276 274
258 264 268 264 259 256 249 271 220 203 205 203 201 200 199 193 190 187 186 187 189 187 186 188 185 184 184 187 193 197 203 210 213 217 195 197 205 220 221 236 247 255 262 260 261 269 271 269 274
262 272 263 259 256 263 241 263 245 195 222 211 198 196 195 190 187 186 184 180 183 184 184 182 179 182 186 194 195 200 213 219 217 218 194 222 206 221 236 239 246 245 254 264 278 283 275 269 278
240 242 244 244 251 252 249 259 263 233 234 218 202 192 187 184 181 178 174 171 180 183 181 178 174 179 187 189 191 194 205 219 226 237 234 235 224 224 236 253 253 249 256 252 256 266 260 271 278
229 245 250 243 238 249 231 247 266 277 249 227 211 197 184 180 178 174 172 173 179 185 184 178 173 178 184 184 188 192 204 209 214 229 236 250 249 242 238 261 256 257 256 257 260 258 273 270 270
232 246 256 268 268 264 224 243 257 255 226 212 205 195 184 178 177 175 175 175 176 177 179 178 175 178 180 183 189 193 199 210 217 223 236 243 260 267 270 264 269 274 270 268 265 264 266 268 269
233 238 255 267 272 272 259 250 237 210 207 205 195 189 181 180 178 177 177 176 175 176 180 180 174 174 177 182 185 188 196 209 214 219 229 244 256 257 249 256 262 273 276 280 271 274 282 283 280
247 252 247 253 266 267 260 252 247 214 208 202 194 188 178 175 176 177 177 176 177 174 173 173 175 176 176 180 189 184 196 211 216 225 232 241 249 251 251 257 262 266 269 270 274 268 287 290 294
218 229 246 259 264 268 269 267 358 214 205 205 196 186 179 170 165 168 168 168 170 170 171 172 173 173 176 182 186 188 196 208 213 217 228 237 246 243 245 251 258 263 271 273 270 276 274 279 288
244 243 244 250 255 263 272 278 71 147 183 192 183 166 157 153 153 155 155 156 160 164 166 168 172 174 177 178 181 188 192 198 209 212 224 239 248 245 241 249 258 265 270 272 269 270 270 269 273
Height
1507 1507 1508 1509 1505 1498 1497 1493 1490 1491 1492 1495 1496 1496 1495 1497 1499 1508 1510 1508 1508 1508 1508 1506 1502 1498 1502 1509 1513 1515 1517 1518 1519 1520 1522 1523 1524 1525 1526 1527 1527 1528 1529 1530 1531 1532 1533 1535 1536
1508 1508 1510 1508 1499 1500 1499 1492 1492 1492 1495 1497 1498 1498 1498 1501 1505 1507 1508 1509 1509 1510 1510 1509 1506 1504 1507 1511 1514 1516 1518 1519 1521 1522 1523 1524 1525 1526 1527 1527 1528 1529 1530 1531 1532 1533 1534 1535 1536
1509 1509 1510 1501 1498 1500 1499 1492 1493 1495 1497 1497 1498 1500 1501 1505 1508 1509 1510 1510 1511 1511 1512 1511 1510 1510 1512 1514 1516 1517 1519 1521 1522 1523 1524 1525 1526 1527 1528 1528 1529 1530 1531 1532 1532 1533 1534 1535 1536
1510 1511 1508 1500 1498 1495 1494 1493 1494 1495 1497 1498 1499 1501 1505 1509 1510 1510 1510 1511 1512 1513 1514 1512 1513 1513 1514 1516 1517 1519 1520 1522 1523 1524 1525 1526 1527 1528 1528 1529 1530 1530 1531 1532 1533 1534 1535 1536 1536
1511 1508 1500 1497 1495 1493 1492 1494 1494 1494 1496 1498 1500 1502 1507 1510 1510 1511 1511 1512 1514 1515 1515 1514 1514 1515 1516 1518 1519 1520 1522 1523 1524 1525 1526 1527 1528 1529 1529 1530 1530 1531 1531 1532 1533 1533 1534 1535 1536
1510 1503 1499 1499 1496 1493 1493 1495 1495 1495 1497 1500 1501 1502 1508 1511 1511 1512 1513 1514 1515 1516 1516 1516 1515 1517 1518 1519 1521 1522 1523 1524 1525 1526 1527 1528 1528 1529 1530 1530 1531 1531 1532 1532 1532 1533 1534 1535 1536
1508 1500 1498 1495 1495 1494 1494 1496 1495 1496 1498 1500 1502 1503 1508 1511 1512 1512 1513 1514 1516 1516 1517 1518 1518 1518 1519 1521 1522 1523 1524 1525 1526 1527 1527 1528 1529 1530 1530 1531 1531 1531 1532 1532 1532 1533 1534 1534 1535
1507 1500 1495 1492 1494 1495 1495 1497 1498 1498 1499 1502 1503 1503 1507 1511 1512 1513 1514 1515 1516 1517 1518 1519 1520 1521 1522 1522 1522 1523 1524 1525 1526 1527 1528 1529 1530 1530 1531 1531 1531 1531 1532 1532 1532 1533 1533 1534 1534
1507 1499 1496 1493 1493 1494 1495 1496 1498 1500 1500 1503 1504 1505 1508 1510 1512 1514 1515 1516 1517 1518 1519 1520 1521 1522 1523 1524 1523 1524 1525 1526 1527 1528 1528 1529 1531 1531 1531 1531 1531 1531 1531 1532 1532 1532 1533 1533 1533
1504 1498 1496 1494 1492 1492 1495 1495 1497 1498 1499 1502 1504 1507 1509 1510 1512 1514 1515 1517 1518 1519 1520 1521 1522 1522 1523 1524 1524 1525 1526 1527 1528 1528 1529 1530 1530 1531 1532 1531 1531 1531 1531 1531 1531 1531 1532 1532 1533
1501 1498 1495 1495 1495 1495 1494 1495 1497 1496 1496 1499 1503 1506 1509 1511 1513 1514 1516 1517 1518 1519 1520 1521 1521 1522 1524 1524 1525 1525 1526 1527 1528 1528 1529 1530 1531 1531 1532 1532 1532 1531 1531 1532 1531 1531 1532 1532 1532
1501 1498 1497 1496 1496 1495 1495 1495 1496 1497 1498 1501 1503 1506 1508 1511 1512 1514 1516 1517 1518 1520 1521 1521 1522 1522 1523 1524 1525 1526 1527 1528 1529 1529 1529 1530 1531 1531 1532 1531 1532 1532 1532 1531 1531 1531 1531 1531 1531
1499 1497 1498 1497 1496 1495 1495 1495 1496 1497 1500 1502 1504 1506 1508 1510 1512 1514 1516 1518 1519 1519 1520 1521 1522 1522 1523 1524 1525 1527 1527 1528 1529 1529 1529 1530 1531 1531 1531 1531 1531 1531 1531 1531 1530 1530 1530 1530 1530
1498 1497 1496 1495 1494 1495 1494 1494 1495 1498 1500 1502 1504 1506 1508 1510 1512 1514 1515 1517 1518 1520 1521 1521 1522 1522 1523 1524 1525 1526 1527 1527 1529 1529 1529 1529 1530 1530 1531 1531 1530 1530 1530 1530 1529 1529 1529 1529 1529
1499 1496 1493 1491 1492 1493 1493 1492 1493 1497 1499 1501 1504 1506 1508 1509 1511 1513 1515 1516 1518 1519 1520 1521 1522 1522 1523 1524 1525 1526 1527 1528 1528 1529 1529 1529 1530 1530 1530 1530 1530 1530 1529 1529 1529 1528 1528 1528 1528
1494 1492 1491 1488 1489 1491 1493 1493 1492 1496 1498 1500 1502 1505 1507 1509 1510 1512 1514 1515 1517 1518 1519 1520 1522 1522 1523 1523 1524 1526 1527 1527 1528 1528 1528 1528 1528 1529 1529 1529 1529 1529 1529 1528 1528 1527 1527 1527 1527
1491 1492 1491 1488 1487 1488 1488 1489 1490 1494 1495 1498 1501 1503 1505 1508 1509 1511 1512 1514 1516 1517 1518 1519 1520 1521 1522 1523 1523 1525 1525 1526 1527 1527 1528 1527 1528 1528 1528 1528 1528 1528 1528 1527 1527 1527 1526 1526 1526
1493 1490 1489 1488 1484 1486 1487 1486 1487 1491 1493 1495 1498 1501 1503 1505 1507 1509 1511 1513 1514 1516 1517 1518 1519 1520 1521 1522 1523 1523 1525 1525 1526 1526 1526 1526 1527 1527 1527 1527 1527 1527 1527 1526 1526 1525 1525 1525 1525
1489 1491 1490 1486 1483 1486 1486 1485 1484 1488 1491 1492 1495 1498 1500 1503 1505 1507 1509 1511 1513 1514 1515 1516 1517 1519 1520 1521 1522 1523 1524 1524 1525 1525 1525 1525 1526 1526 1526 1526 1525 1525 1525 1524 1524 1524 1524 1524 1523
1490 1491 1488 1485 1483 1485 1484 1484 1481 1484 1488 1490 1493 1495 1498 1500 1503 1506 1508 1509 1511 1512 1513 1514 1515 1517 1518 1519 1520 1522 1522 1523 1524 1524 1524 1524 1524 1524 1525 1524 1524 1524 1523 1523 1522 1522 1522 1523 1522
1488 1488 1487 1487 1484 1482 1484 1484 1480 1481 1486 1489 1491 1493 1495 1497 1500 1503 1505 1507 1509 1510 1511 1513 1514 1515 1516 1518 1519 1520 1521 1522 1523 1523 1523 1523 1523 1523 1523 1523 1523 1522 1522 1522 1521 1520 1520 1521 1521
1488 1481 1483 1485 1488 1484 1484 1489 1479 1477 1482 1485 1488 1490 1492 1495 1497 1499 1502 1504 1506 1508 1509 1511 1512 1513 1514 1516 1517 1518 1519 1520 1521 1522 1522 1521 1521 1522 1521 1521 1521 1520 1521 1520 1519 1519 1519 1518 1519
1482 1480 1481 1482 1483 1483 1480 1486 1477 1475 1479 1479 1482 1486 1489 1492 1494 1496 1499 1501 1504 1506 1507 1509 1510 1511 1513 1514 1515 1517 1518 1519 1520 1520 1520 1520 1520 1520 1520 1519 1519 1518 1518 1518 1517 1516 1516 1516 1516
1479 1482 1481 1479 1479 1491 1480 1485 1482 1470 1473 1474 1478 1482 1486 1489 1492 1494 1497 1498 1501 1504 1505 1507 1508 1509 1511 1512 1513 1514 1515 1517 1518 1518 1519 1519 1519 1519 1518 1518 1517 1516 1516 1515 1514 1514 1514 1513 1513
1479 1484 1492 1494 1492 1488 1473 1480 1477 1468 1469 1472 1476 1479 1483 1487 1489 1492 1494 1496 1498 1501 1503 1504 1506 1507 1509 1510 1511 1512 1513 1514 1515 1516 1516 1517 1517 1517 1515 1515 1514 1514 1513 1513 1512 1512 1511 1511 1510
1475 1477 1493 1501 1494 1480 1474 1478 1471 1468 1471 1474 1476 1479 1482 1485 1487 1490 1492 1494 1496 1498 1500 1502 1503 1505 1507 1508 1509 1510 1510 1512 1513 1513 1514 1515 1515 1514 1513 1513 1512 1512 1511 1511 1510 1510 1509 1508 1507
1473 1473 1469 1478 1479 1483 1475 1471 1467 1467 1470 1473 1475 1478 1480 1483 1486 1488 1490 1492 1494 1496 1497 1499 1501 1502 1504 1505 1506 1507 1508 1509 1510 1510 1510 1511 1511 1511 1511 1510 1510 1509 1509 1508 1508 1507 1507 1506 1505
1466 1465 1470 1479 1493 1493 1480 1473 1469 1467 1468 1470 1473 1476 1479 1482 1484 1486 1489 1490 1492 1493 1495 1497 1499 1500 1501 1503 1504 1505 1505 1506 1506 1507 1507 1508 1508 1508 1508 1507 1507 1507 1506 1506 1505 1505 1504 1503 1503
1469 1470 1471 1473 1476 1486 1487 1475 1458 1462 1465 1468 1471 1474 1477 1480 1482 1485 1487 1489 1491 1492 1494 1495 1497 1498 1499 1500 1501 1502 1503 1503 1503 1504 1504 1505 1505 1505 1505 1504 1504 1504 1503 1503 1502 1502 1502 1501 1500
1463 1465 1468 1479 1481 1476 1477 1475 1458 1461 1464 1467 1470 1473 1476 1479 1481 1484 1486 1488 1490 1492 1493 1494 1496 1497 1498 1498 1499 1500 1500 1501 1501 1502 1502 1502 1502 1502 1502 1502 1502 1501 1500 1500 1499 1499 1499 1498 1498